METEREN Weather Reports


time (UTC)temp
F
wind
direction
speed
knots
gust
knots
rain 1hr
in
rain 24hr
in
rain mn
in
humidity
%
barometer
mb
20260503021606 57 277 1.7 5.2 0.00 0.42 0.13 96 1010.5
20260503020058 57 360 3.5 5.2 0.00 0.42 0.13 96 1010.6
20260503014605 57 282 1.7 4.3 0.00 0.42 0.13 96 1010.7
20260503013055 57 264 3.5 5.2 0.00 0.42 0.13 96 1010.8
20260503011559 57 275 4.3 7.8 0.02 0.42 0.13 96 1010.8
20260503010106 57 360 5.2 7.8 0.04 0.42 0.13 96 1011.0
20260503004551 57 360 4.3 7.8 0.10 0.42 0.13 95 1011.0
20260503003059 57 360 2.6 6.1 0.10 0.42 0.13 96 1011.0
20260503001547 57 360 2.6 6.1 0.08 0.40 0.11 95 1011.3
20260503000053 57 360 2.6 6.1 0.09 0.38 0.09 95 1011.9
20260502234545 57 360 0.9 5.2 0.03 0.32 0.03 95 1011.9
20260502233044 57 360 3.5 7.8 0.03 0.32 0.03 95 1011.5
20260502231541 57 360 2.6 7.8 0.04 0.32 0.03 95 1011.9
20260502230038 57 360 4.3 7.0 0.05 0.28 0.00 95 1012.1
20260502224537 57 360 2.6 6.1 0.14 0.28 0.28 94 1012.7
20260502223037 57 360 2.6 6.1 0.28 0.28 0.28 94 1012.8
20260502221535 58 360 4.3 9.6 0.28 0.28 0.28 94 1012.9
20260502220037 58 360 3.5 8.7 0.23 0.23 0.23 92 1013.2
20260502214535 58 360 7.0 15.6 0.14 0.14 0.14 89 1013.9
20260502213041 61 360 5.2 23.5 0.00 0.00 0.00 81 1014.0
20260502211531 64 360 0.9 2.6 0.00 0.00 0.00 72 1012.8
20260502210028 64 360 2.6 5.2 0.00 0.00 0.00 71 1012.1
20260502204528 64 360 0.0 7.8 0.00 0.00 0.00 71 1012.3
20260502203027 65 360 3.5 5.2 0.00 0.00 0.00 70 1012.2
20260502201528 66 360 4.3 8.7 0.00 0.00 0.00 68 1013.0
20260502200024 67 360 5.2 10.4 0.00 0.00 0.00 68 1012.6
20260502194523 67 360 2.6 6.1 0.00 0.00 0.00 68 1012.8
20260502193024 68 360 1.7 5.2 0.00 0.00 0.00 67 1012.8
20260502191524 69 360 0.9 4.3 0.00 0.00 0.00 66 1012.9
20260502190024 69 360 0.9 4.3 0.00 0.00 0.00 65 1012.9
20260502184525 70 360 0.9 5.2 0.00 0.00 0.00 64 1012.8
20260502183021 71 360 0.9 6.1 0.00 0.00 0.00 63 1013.0
20260502181520 72 168 3.5 7.0 0.00 0.00 0.00 61 1012.9
20260502163016 75 117 1.7 7.0 0.00 0.00 0.00 59 1013.5
20260502161510 76 83 0.0 6.1 0.00 0.00 0.00 58 1013.7
20260502151501 75 64 0.0 3.5 0.00 0.00 0.00 60 1014.6
20260502123044 73 31 3.5 9.6 0.00 0.00 0.00 62 1016.2
20260502121541 72 301 5.2 9.6 0.00 0.00 0.00 64 1016.4
20260502114541 71 86 6.1 11.3 0.00 0.00 0.00 64 1016.6
20260502113039 71 22 3.5 10.4 0.00 0.00 0.00 64 1016.6
20260502111536 72 107 2.6 7.8 0.00 0.00 0.00 62 1016.9
20260502110033 71 93 0.9 8.7 0.00 0.00 0.00 63 1016.8
20260502104535 70 34 2.6 7.0 0.00 0.00 0.00 64 1017.0
20260502103028 69 360 3.5 6.1 0.00 0.00 0.00 66 1017.1
20260502101534 69 28 1.7 7.8 0.00 0.00 0.00 66 1017.3
20260502091521 68 59 0.9 7.0 0.00 0.00 0.00 67 1017.6
20260502070057 57 360 0.9 6.1 0.00 0.00 0.00 66 1017.8
20260502064601 57 360 3.5 6.1 0.00 0.00 0.00 65 1017.8
20260502063054 57 360 0.9 4.3 0.00 0.00 0.00 63 1017.6
20260502061553 57 360 0.9 2.6 0.00 0.00 0.00 63 1017.8
20260502060152 56 360 2.6 6.1 0.00 0.00 0.00 62 1017.8
20260502054557 55 360 1.7 4.3 0.00 0.00 0.00 67 1017.8
20260502053050 53 360 0.0 3.5 0.00 0.00 0.00 71 1017.6
20260502051548 52 360 0.9 3.5 0.00 0.00 0.00 71 1017.6
20260502050047 52 360 0.9 3.5 0.00 0.00 0.00 71 1017.4
20260502044544 51 360 0.0 0.0 0.00 0.00 0.00 71 1017.3
20260502043046 51 360 1.7 3.5 0.00 0.00 0.00 70 1017.5
20260502041538 51 360 2.6 5.2 0.00 0.00 0.00 70 1017.4
20260502040048 51 360 0.9 2.6 0.00 0.00 0.00 69 1017.4
20260502034535 51 360 0.9 1.7 0.00 0.00 0.00 71 1017.7
20260502033033 52 360 0.9 3.5 0.00 0.00 0.00 69 1017.8
20260502031531 52 360 0.9 3.5 0.00 0.00 0.00 68 1017.8
20260502030031 52 360 0.9 2.6 0.00 0.00 0.00 69 1017.7
20260502024530 52 360 0.0 1.7 0.00 0.00 0.00 67 1017.9
20260502023027 53 360 0.9 2.6 0.00 0.00 0.00 68 1018.1